Darstellungsparameter: Aktuell verwendete Einstellungen:
Skalierung der Graphiken ... ?
xyx+y,   Skalierungsfaktor:      Skalierung: Modus: x, Faktor: 1
Darstellungszeitraum ... ?
Vom - - bis: - -   Zeitraum: 05.11.2020 - 05.11.2020
Min/Max/Avg-Anzeige ... ?
Zeige MMA aktuell
Zeige MMA Monat
Zeige MMA alles
Zeige --A aktuell
Zeige --A Monat
Zeige --A alles
Keine MMA-Anzeige
MMA:
Average (ber die Originaldaten)
MMA-Basis: 05.11.2020 - 05.11.2020
Quicknavigation für Darstellung... ?
Tage:      1T, 2T, 3T, 5T -1T -2T -3T -5T +1T +2T +3T +5T
Wochen: 1W, 2W, 3W -1W -2W -3W +1W +2W +3W
Monate: 1M, 3M, 6M -1M -3M -6M +1M +3M +6M
Jahre:    1J, 3J, 5J, 10J -1J -3J -5J -10J +1J +3J +5J +10J
Nutze für die Darstellung ... ?
Originaldaten oder Mittelwerte auf ...
Stundenbasis Tagesbasis Wochenbasis
Monatsbasis Jahresbasis      Datenbasis: Original-Daten
Darstellen als:
Statistik (Auto) Statistik J:M      Darstellung:
Zur Graphik,    zurück zur Übersicht aller Sensoren.
 
Tabellarische Datenbersicht: ?
 
Sensor: Nr:Datum:Temp:Abs-Feuchte:Windchill:Wind:
Aussen-T/F 1 05-11-2020 00:00:00 2 C 5.33 g/m*3 2 C 0 km/h
2 05-11-2020 00:05:00 1.9 C 5.3 g/m*3 1.9 C 0 km/h
3 05-11-2020 00:10:00 1.8 C 5.21 g/m*3 1.8 C 0 km/h
4 05-11-2020 00:15:00 1.8 C 5.21 g/m*3 1.8 C 0 km/h
5 05-11-2020 00:20:00 1.8 C 5.26 g/m*3 1.8 C 0 km/h
6 05-11-2020 00:25:00 1.8 C 5.26 g/m*3 1.8 C 0 km/h
7 05-11-2020 00:30:00 1.7 C 5.23 g/m*3 1.7 C 0 km/h
8 05-11-2020 00:35:00 1.7 C 5.23 g/m*3 1.7 C 0 km/h
9 05-11-2020 00:40:00 1.7 C 5.23 g/m*3 1.7 C 0 km/h
10 05-11-2020 00:45:00 1.7 C 5.23 g/m*3 1.7 C 0 km/h
11 05-11-2020 00:50:00 1.7 C 5.23 g/m*3 1.7 C 0 km/h
12 05-11-2020 00:55:00 1.7 C 5.23 g/m*3 1.7 C 0 km/h
13 05-11-2020 01:00:00 1.7 C 5.23 g/m*3 1.7 C 0 km/h
14 05-11-2020 01:05:00 1.6 C 5.19 g/m*3 1.6 C 0 km/h
15 05-11-2020 01:10:00 1.6 C 5.19 g/m*3 1.6 C 0 km/h
16 05-11-2020 01:15:00 1.5 C 5.16 g/m*3 1.5 C 0 km/h
17 05-11-2020 01:20:00 1.5 C 5.16 g/m*3 1.5 C 0 km/h
18 05-11-2020 01:25:00 1.6 C 5.19 g/m*3 1.6 C 1.6 km/h
19 05-11-2020 01:30:00 1.7 C 5.23 g/m*3 1.7 C 1.6 km/h
20 05-11-2020 01:35:00 1.8 C 5.26 g/m*3 1.8 C 0 km/h
21 05-11-2020 01:40:00 1.9 C 5.3 g/m*3 1.9 C 0 km/h
22 05-11-2020 01:45:00 2 C 5.33 g/m*3 2 C 0 km/h
23 05-11-2020 01:50:00 2.1 C 5.37 g/m*3 2.1 C 0 km/h
24 05-11-2020 01:55:00 2.1 C 5.37 g/m*3 2.1 C 3.2 km/h
25 05-11-2020 02:00:00 2.2 C 5.41 g/m*3 2.2 C 3.2 km/h
Sensor: Nr:Datum:Temp:Abs-Feuchte:Windchill:Wind:
Aussen-T/F 26 05-11-2020 02:05:00 2.2 C 5.41 g/m*3 2.2 C 0 km/h
27 05-11-2020 02:10:00 2.2 C 5.41 g/m*3 2.2 C 0 km/h
28 05-11-2020 02:15:00 2.2 C 5.41 g/m*3 2.2 C 0 km/h
29 05-11-2020 02:20:00 2.2 C 5.41 g/m*3 2.2 C 0 km/h
30 05-11-2020 02:25:00 2.2 C 5.41 g/m*3 2.2 C 0 km/h
31 05-11-2020 02:30:00 2.2 C 5.41 g/m*3 2.2 C 0 km/h
32 05-11-2020 02:35:00 2.2 C 5.41 g/m*3 2.2 C 0 km/h
33 05-11-2020 02:40:00 2.2 C 5.41 g/m*3 2.2 C 0 km/h
34 05-11-2020 02:45:00 2.2 C 5.41 g/m*3 2.2 C 1.6 km/h
35 05-11-2020 02:50:00 2.2 C 5.41 g/m*3 2.2 C 0 km/h
36 05-11-2020 02:55:00 2.2 C 5.41 g/m*3 2.2 C 0 km/h
37 05-11-2020 03:00:00 2.2 C 5.41 g/m*3 2.2 C 1.6 km/h
38 05-11-2020 03:05:00 2.2 C 5.41 g/m*3 2.2 C 0 km/h
39 05-11-2020 03:10:00 2.2 C 5.41 g/m*3 2.2 C 1.6 km/h
40 05-11-2020 03:15:00 2.1 C 5.37 g/m*3 2.1 C 0 km/h
41 05-11-2020 03:20:00 2.1 C 5.37 g/m*3 2.1 C 0 km/h
42 05-11-2020 03:25:00 2.1 C 5.37 g/m*3 2.1 C 0 km/h
43 05-11-2020 03:30:00 2.1 C 5.37 g/m*3 2.1 C 0 km/h
44 05-11-2020 03:35:00 2.1 C 5.37 g/m*3 2.1 C 0 km/h
45 05-11-2020 03:40:00 2.1 C 5.37 g/m*3 2.1 C 0 km/h
46 05-11-2020 03:45:00 2.1 C 5.37 g/m*3 2.1 C 0 km/h
47 05-11-2020 03:50:00 2 C 5.33 g/m*3 2 C 0 km/h
48 05-11-2020 03:55:00 2 C 5.33 g/m*3 2 C 0 km/h
49 05-11-2020 04:00:00 2 C 5.33 g/m*3 2 C 0 km/h
50 05-11-2020 04:05:00 2 C 5.33 g/m*3 2 C 0 km/h
Sensor: Nr:Datum:Temp:Abs-Feuchte:Windchill:Wind:
Aussen-T/F 51 05-11-2020 04:10:00 2 C 5.33 g/m*3 2 C 0 km/h
52 05-11-2020 04:15:00 2.1 C 5.37 g/m*3 2.1 C 0 km/h
53 05-11-2020 04:20:00 2 C 5.33 g/m*3 2 C 0 km/h
54 05-11-2020 04:25:00 2.1 C 5.37 g/m*3 2.1 C 0 km/h
55 05-11-2020 04:30:00 2.1 C 5.43 g/m*3 2.1 C 0 km/h
56 05-11-2020 04:35:00 2.1 C 5.43 g/m*3 2.1 C 0 km/h
57 05-11-2020 04:40:00 2.1 C 5.43 g/m*3 2.1 C 0 km/h
58 05-11-2020 04:45:00 2.2 C 5.46 g/m*3 2.2 C 0 km/h
59 05-11-2020 04:50:00 2.2 C 5.46 g/m*3 2.2 C 0 km/h
60 05-11-2020 04:55:00 2.2 C 5.46 g/m*3 2.2 C 0 km/h
61 05-11-2020 05:00:00 2.2 C 5.46 g/m*3 2.2 C 0 km/h
62 05-11-2020 05:05:00 2.2 C 5.46 g/m*3 2.2 C 0 km/h
63 05-11-2020 05:10:00 2.2 C 5.46 g/m*3 2.2 C 0 km/h
64 05-11-2020 05:15:00 2.3 C 5.5 g/m*3 2.3 C 0 km/h
65 05-11-2020 05:20:00 2.2 C 5.46 g/m*3 2.2 C 0 km/h
66 05-11-2020 05:25:00 2.2 C 5.46 g/m*3 2.2 C 0 km/h
67 05-11-2020 05:30:00 2.2 C 5.46 g/m*3 2.2 C 0 km/h
68 05-11-2020 05:35:00 2.2 C 5.46 g/m*3 2.2 C 0 km/h
69 05-11-2020 05:40:00 2.3 C 5.5 g/m*3 2.3 C 0 km/h
70 05-11-2020 05:45:00 2.3 C 5.5 g/m*3 2.3 C 0 km/h
71 05-11-2020 05:50:00 2.3 C 5.5 g/m*3 2.3 C 0 km/h
72 05-11-2020 05:55:00 2.3 C 5.5 g/m*3 2.3 C 0 km/h
73 05-11-2020 06:00:00 2.3 C 5.5 g/m*3 2.3 C 0 km/h
74 05-11-2020 06:05:00 2.3 C 5.5 g/m*3 2.3 C 0 km/h
75 05-11-2020 06:10:00 2.3 C 5.5 g/m*3 2.3 C 0 km/h
Sensor: Nr:Datum:Temp:Abs-Feuchte:Windchill:Wind:
Aussen-T/F 76 05-11-2020 06:15:00 2.3 C 5.5 g/m*3 2.3 C 0 km/h
77 05-11-2020 06:20:00 2.3 C 5.5 g/m*3 2.3 C 0 km/h
78 05-11-2020 06:25:00 2.3 C 5.5 g/m*3 2.3 C 0 km/h
79 05-11-2020 06:30:00 2.3 C 5.5 g/m*3 2.3 C 0 km/h
80 05-11-2020 06:35:00 2.3 C 5.5 g/m*3 2.3 C 0 km/h
81 05-11-2020 06:40:00 2.3 C 5.5 g/m*3 2.3 C 0 km/h
82 05-11-2020 06:45:00 2.3 C 5.5 g/m*3 2.3 C 0 km/h
83 05-11-2020 06:50:00 2.3 C 5.5 g/m*3 2.3 C 0 km/h
84 05-11-2020 06:55:00 2.3 C 5.5 g/m*3 2.3 C 0 km/h
85 05-11-2020 07:00:00 2.2 C 5.46 g/m*3 2.2 C 0 km/h
86 05-11-2020 07:05:00 2.2 C 5.46 g/m*3 2.2 C 0 km/h
87 05-11-2020 07:10:00 2.2 C 5.46 g/m*3 2.2 C 0 km/h
88 05-11-2020 07:15:00 2.2 C 5.46 g/m*3 2.2 C 0 km/h
89 05-11-2020 07:20:00 2.2 C 5.46 g/m*3 2.2 C 0 km/h
90 05-11-2020 07:25:00 2.3 C 5.5 g/m*3 2.3 C 0 km/h
91 05-11-2020 07:30:00 2.3 C 5.5 g/m*3 2.3 C 0 km/h
92 05-11-2020 07:35:00 2.3 C 5.5 g/m*3 2.3 C 0 km/h
93 05-11-2020 07:40:00 2.3 C 5.5 g/m*3 2.3 C 0 km/h
94 05-11-2020 07:55:00 3.6 C 6 g/m*3 3.6 C 4.8 km/h
95 05-11-2020 12:10:00 3.6 C 6 g/m*3 3.6 C 1.6 km/h
96 05-11-2020 12:15:00 3.6 C 6 g/m*3 3.6 C 0 km/h
97 05-11-2020 12:20:00 3.7 C 6.04 g/m*3 3.7 C 1.6 km/h
98 05-11-2020 12:25:00 3.8 C 6.09 g/m*3 3.8 C 3.2 km/h
99 05-11-2020 12:30:00 3.8 C 6.09 g/m*3 2.21 C 6.4 km/h
100 05-11-2020 12:35:00 3.7 C 6.04 g/m*3 3.7 C 4.8 km/h
Sensor: Nr:Datum:Temp:Abs-Feuchte:Windchill:Wind:
Aussen-T/F 101 05-11-2020 12:40:00 3.8 C 6.09 g/m*3 2.21 C 6.4 km/h
102 05-11-2020 12:45:00 3.8 C 6.09 g/m*3 3.8 C 4.8 km/h
103 05-11-2020 12:50:00 3.9 C 6.13 g/m*3 3.9 C 3.2 km/h
104 05-11-2020 12:55:00 3.9 C 6.13 g/m*3 3.9 C 1.6 km/h
105 05-11-2020 13:00:00 4 C 6.17 g/m*3 4 C 0 km/h
106 05-11-2020 13:05:00 4 C 6.17 g/m*3 4 C 3.2 km/h
107 05-11-2020 13:10:00 4 C 6.17 g/m*3 4 C 1.6 km/h
108 05-11-2020 13:15:00 4.1 C 6.21 g/m*3 4.1 C 0 km/h
109 05-11-2020 13:20:00 4.2 C 6.25 g/m*3 4.2 C 3.2 km/h
110 05-11-2020 13:25:00 4.2 C 6.25 g/m*3 4.2 C 3.2 km/h
111 05-11-2020 13:30:00 4.3 C 6.29 g/m*3 4.3 C 3.2 km/h
112 05-11-2020 13:35:00 4.3 C 6.29 g/m*3 4.3 C 3.2 km/h
113 05-11-2020 13:40:00 4.3 C 6.29 g/m*3 4.3 C 4.8 km/h
114 05-11-2020 13:45:00 4.3 C 6.29 g/m*3 4.3 C 3.2 km/h
115 05-11-2020 13:50:00 4.3 C 6.29 g/m*3 4.3 C 4.8 km/h
116 05-11-2020 13:55:00 4.3 C 6.29 g/m*3 4.3 C 1.6 km/h
117 05-11-2020 14:00:00 4.2 C 6.25 g/m*3 4.2 C 4.8 km/h
118 05-11-2020 14:05:00 4.1 C 6.21 g/m*3 4.1 C 3.2 km/h
119 05-11-2020 14:10:00 4.1 C 6.21 g/m*3 4.1 C 0 km/h
120 05-11-2020 14:15:00 4.1 C 6.21 g/m*3 4.1 C 3.2 km/h
121 05-11-2020 14:20:00 4.1 C 6.21 g/m*3 4.1 C 3.2 km/h
122 05-11-2020 14:25:00 4.2 C 6.25 g/m*3 4.2 C 3.2 km/h
123 05-11-2020 14:30:00 4.2 C 6.25 g/m*3 4.2 C 1.6 km/h
124 05-11-2020 14:35:00 4.3 C 6.29 g/m*3 4.3 C 4.8 km/h
125 05-11-2020 14:40:00 4.3 C 6.29 g/m*3 4.3 C 3.2 km/h
Sensor: Nr:Datum:Temp:Abs-Feuchte:Windchill:Wind:
Aussen-T/F 126 05-11-2020 14:45:00 4.2 C 6.25 g/m*3 4.2 C 4.8 km/h
127 05-11-2020 14:50:00 4.3 C 6.29 g/m*3 4.3 C 3.2 km/h
128 05-11-2020 14:55:00 4.3 C 6.29 g/m*3 4.3 C 0 km/h
129 05-11-2020 15:00:00 4.3 C 6.36 g/m*3 4.3 C 3.2 km/h
130 05-11-2020 15:05:00 4.3 C 6.36 g/m*3 4.3 C 3.2 km/h
131 05-11-2020 15:10:00 4.4 C 6.4 g/m*3 4.4 C 0 km/h
132 05-11-2020 15:15:00 4.5 C 6.44 g/m*3 4.5 C 3.2 km/h
133 05-11-2020 15:20:00 4.6 C 6.42 g/m*3 4.6 C 1.6 km/h
134 05-11-2020 15:25:00 4.5 C 6.38 g/m*3 4.5 C 4.8 km/h
135 05-11-2020 15:30:00 4.5 C 6.38 g/m*3 4.5 C 0 km/h
136 05-11-2020 15:35:00 4.5 C 6.38 g/m*3 4.5 C 4.8 km/h
137 05-11-2020 15:40:00 4.4 C 6.33 g/m*3 4.4 C 3.2 km/h
138 05-11-2020 15:45:00 4.4 C 6.33 g/m*3 4.4 C 0 km/h
139 05-11-2020 15:50:00 4.4 C 6.33 g/m*3 4.4 C 0 km/h
140 05-11-2020 15:55:00 4.4 C 6.33 g/m*3 4.4 C 0 km/h
141 05-11-2020 16:00:00 4.5 C 6.38 g/m*3 4.5 C 0 km/h
142 05-11-2020 16:05:00 4.5 C 6.38 g/m*3 4.5 C 0 km/h
143 05-11-2020 16:10:00 4.4 C 6.33 g/m*3 4.4 C 0 km/h
144 05-11-2020 16:15:00 4.4 C 6.33 g/m*3 4.4 C 0 km/h
145 05-11-2020 16:20:00 4.4 C 6.33 g/m*3 4.4 C 0 km/h
146 05-11-2020 16:25:00 4.4 C 6.33 g/m*3 4.4 C 0 km/h
147 05-11-2020 16:30:00 4.4 C 6.33 g/m*3 4.4 C 0 km/h
148 05-11-2020 16:35:00 4.4 C 6.33 g/m*3 4.4 C 0 km/h
149 05-11-2020 16:40:00 4.4 C 6.33 g/m*3 4.4 C 0 km/h
150 05-11-2020 16:45:00 4.3 C 6.29 g/m*3 4.3 C 0 km/h
Sensor: Nr:Datum:Temp:Abs-Feuchte:Windchill:Wind:
Aussen-T/F 151 05-11-2020 16:50:00 4.3 C 6.29 g/m*3 4.3 C 0 km/h
152 05-11-2020 16:55:00 4.3 C 6.29 g/m*3 4.3 C 0 km/h
153 05-11-2020 17:00:00 4.3 C 6.29 g/m*3 4.3 C 0 km/h
154 05-11-2020 17:05:00 4.3 C 6.29 g/m*3 4.3 C 0 km/h
155 05-11-2020 17:10:00 4.3 C 6.29 g/m*3 4.3 C 1.6 km/h
156 05-11-2020 17:15:00 4.3 C 6.29 g/m*3 4.3 C 0 km/h
157 05-11-2020 17:20:00 4.2 C 6.25 g/m*3 4.2 C 0 km/h
158 05-11-2020 17:25:00 4.2 C 6.25 g/m*3 4.2 C 0 km/h
159 05-11-2020 17:30:00 4.2 C 6.25 g/m*3 4.2 C 0 km/h
160 05-11-2020 17:35:00 4.1 C 6.21 g/m*3 4.1 C 0 km/h
161 05-11-2020 17:40:00 4.1 C 6.21 g/m*3 4.1 C 0 km/h
162 05-11-2020 17:45:00 4.1 C 6.21 g/m*3 4.1 C 0 km/h
163 05-11-2020 17:50:00 4.1 C 6.21 g/m*3 4.1 C 0 km/h
164 05-11-2020 17:55:00 4 C 6.17 g/m*3 4 C 3.2 km/h
165 05-11-2020 18:00:00 3.9 C 6.13 g/m*3 3.9 C 3.2 km/h
166 05-11-2020 18:05:00 3.9 C 6.13 g/m*3 3.9 C 0 km/h
167 05-11-2020 18:10:00 3.9 C 6.13 g/m*3 3.9 C 0 km/h
168 05-11-2020 18:15:00 3.9 C 6.13 g/m*3 3.9 C 0 km/h
169 05-11-2020 18:20:00 3.8 C 6.09 g/m*3 3.8 C 0 km/h
170 05-11-2020 18:25:00 3.8 C 6.09 g/m*3 3.8 C 0 km/h
171 05-11-2020 18:30:00 3.8 C 6.09 g/m*3 3.8 C 0 km/h
172 05-11-2020 18:35:00 3.8 C 6.09 g/m*3 3.8 C 1.6 km/h
173 05-11-2020 18:40:00 3.7 C 6.04 g/m*3 3.7 C 0 km/h
174 05-11-2020 18:45:00 3.7 C 6.04 g/m*3 3.7 C 0 km/h
175 05-11-2020 18:50:00 3.7 C 6.04 g/m*3 3.7 C 0 km/h
Sensor: Nr:Datum:Temp:Abs-Feuchte:Windchill:Wind:
Aussen-T/F 176 05-11-2020 18:55:00 3.6 C 6 g/m*3 3.6 C 0 km/h
177 05-11-2020 19:00:00 3.6 C 6 g/m*3 3.6 C 0 km/h
178 05-11-2020 19:05:00 3.5 C 5.96 g/m*3 3.5 C 0 km/h
179 05-11-2020 19:10:00 3.4 C 5.92 g/m*3 3.4 C 0 km/h
180 05-11-2020 19:15:00 3.4 C 5.92 g/m*3 3.4 C 0 km/h
181 05-11-2020 19:20:00 3.4 C 5.92 g/m*3 3.4 C 0 km/h
182 05-11-2020 19:25:00 3.3 C 5.88 g/m*3 3.3 C 0 km/h
183 05-11-2020 19:30:00 3.3 C 5.88 g/m*3 3.3 C 0 km/h
184 05-11-2020 19:35:00 3.3 C 5.88 g/m*3 3.3 C 0 km/h
185 05-11-2020 19:40:00 3.3 C 5.88 g/m*3 3.3 C 0 km/h
186 05-11-2020 19:45:00 3.4 C 5.92 g/m*3 3.4 C 0 km/h
187 05-11-2020 19:50:00 3.4 C 5.92 g/m*3 3.4 C 0 km/h
188 05-11-2020 19:55:00 3.4 C 5.92 g/m*3 3.4 C 0 km/h
189 05-11-2020 20:00:00 3.4 C 5.92 g/m*3 3.4 C 0 km/h
190 05-11-2020 20:05:00 3.4 C 5.92 g/m*3 3.4 C 0 km/h
191 05-11-2020 20:10:00 3.4 C 5.92 g/m*3 3.4 C 0 km/h
192 05-11-2020 20:15:00 3.4 C 5.92 g/m*3 3.4 C 0 km/h
193 05-11-2020 20:20:00 3.3 C 5.88 g/m*3 3.3 C 0 km/h
194 05-11-2020 20:25:00 3.3 C 5.88 g/m*3 3.3 C 0 km/h
195 05-11-2020 20:30:00 3.3 C 5.88 g/m*3 3.3 C 0 km/h
196 05-11-2020 20:35:00 3.2 C 5.85 g/m*3 3.2 C 0 km/h
197 05-11-2020 20:40:00 3.3 C 5.88 g/m*3 3.3 C 0 km/h
198 05-11-2020 20:45:00 3.3 C 5.88 g/m*3 3.3 C 0 km/h
199 05-11-2020 20:50:00 3.3 C 5.88 g/m*3 3.3 C 0 km/h
200 05-11-2020 20:55:00 3.3 C 5.88 g/m*3 3.3 C 0 km/h
Sensor: Nr:Datum:Temp:Abs-Feuchte:Windchill:Wind:
Aussen-T/F 201 05-11-2020 21:00:00 3.3 C 5.88 g/m*3 3.3 C 0 km/h
202 05-11-2020 21:05:00 3.3 C 5.88 g/m*3 3.3 C 0 km/h
203 05-11-2020 21:10:00 3.3 C 5.88 g/m*3 3.3 C 0 km/h
204 05-11-2020 21:15:00 3.3 C 5.88 g/m*3 3.3 C 1.6 km/h
205 05-11-2020 21:20:00 3.3 C 5.88 g/m*3 3.3 C 4.8 km/h
206 05-11-2020 21:25:00 3.3 C 5.88 g/m*3 3.3 C 3.2 km/h
207 05-11-2020 21:30:00 3.2 C 5.85 g/m*3 3.2 C 1.6 km/h
208 05-11-2020 21:35:00 3.2 C 5.85 g/m*3 3.2 C 0 km/h
209 05-11-2020 21:40:00 3.2 C 5.85 g/m*3 3.2 C 0 km/h
210 05-11-2020 21:45:00 3.2 C 5.85 g/m*3 3.2 C 0 km/h
211 05-11-2020 21:50:00 3.3 C 5.88 g/m*3 3.3 C 0 km/h
212 05-11-2020 21:55:00 3.3 C 5.88 g/m*3 3.3 C 0 km/h
213 05-11-2020 22:00:00 3.2 C 5.85 g/m*3 3.2 C 0 km/h
214 05-11-2020 22:05:00 3.2 C 5.85 g/m*3 3.2 C 0 km/h
215 05-11-2020 22:10:00 3.2 C 5.85 g/m*3 3.2 C 0 km/h
216 05-11-2020 22:15:00 3.1 C 5.81 g/m*3 3.1 C 0 km/h
217 05-11-2020 22:20:00 3.1 C 5.81 g/m*3 3.1 C 0 km/h
218 05-11-2020 22:25:00 3.2 C 5.85 g/m*3 3.2 C 0 km/h
219 05-11-2020 22:30:00 3.2 C 5.85 g/m*3 3.2 C 0 km/h
220 05-11-2020 22:35:00 3.2 C 5.85 g/m*3 3.2 C 0 km/h
221 05-11-2020 22:40:00 3.3 C 5.88 g/m*3 3.3 C 0 km/h
222 05-11-2020 22:45:00 3.3 C 5.88 g/m*3 3.3 C 0 km/h
223 05-11-2020 22:50:00 3.4 C 5.99 g/m*3 3.4 C 0 km/h
224 05-11-2020 22:55:00 3.4 C 5.99 g/m*3 3.4 C 0 km/h
225 05-11-2020 23:00:00 3.4 C 5.99 g/m*3 3.4 C 0 km/h
Sensor: Nr:Datum:Temp:Abs-Feuchte:Windchill:Wind:
Aussen-T/F 226 05-11-2020 23:05:00 3.4 C 5.99 g/m*3 3.4 C 3.2 km/h
227 05-11-2020 23:10:00 3.3 C 5.88 g/m*3 3.3 C 3.2 km/h
228 05-11-2020 23:15:00 3.3 C 5.88 g/m*3 3.3 C 0 km/h
229 05-11-2020 23:20:00 3.3 C 5.88 g/m*3 3.3 C 0 km/h
230 05-11-2020 23:25:00 3.3 C 5.88 g/m*3 3.3 C 0 km/h
231 05-11-2020 23:30:00 3.3 C 5.88 g/m*3 3.3 C 0 km/h
232 05-11-2020 23:35:00 3.3 C 5.88 g/m*3 3.3 C 0 km/h
233 05-11-2020 23:40:00 3.3 C 5.88 g/m*3 3.3 C 0 km/h
234 05-11-2020 23:45:00 3.3 C 5.88 g/m*3 3.3 C 0 km/h
235 05-11-2020 23:50:00 3.3 C 5.88 g/m*3 3.3 C 3.2 km/h
236 05-11-2020 23:55:00 3.3 C 5.88 g/m*3 3.3 C 0 km/h

Legende:
   Min
   Max


Maximal/Minimal-Werte vom 05.11.2020 - 05.11.2020

Sensor Min Max Avg
Temp
(Aussen-T/F)
1.5 °C
05-11-2020  01:15:00
4.6 °C
05-11-2020  15:20:00
3.12 °C
Abs-Feuchte
(Aussen-T/F)
5.16 g/m*3
05-11-2020  01:15:00
6.44 g/m*3
05-11-2020  15:15:00
5.79 g/m*3
Windchill
(Aussen-T/F)
1.5 C
05-11-2020  01:15:00
4.6 C
05-11-2020  15:20:00
3.09 C

Die Daten stammen von einer Davis Vantage Pro 2 Wetter-Station und werden unter Linux mit der Software wview2wettercgi und aufbereitet. Alle Angaben erfolgen ohne Gewähr für ihre Vollständigkeit oder Richtigkeit.
Kontakt: Rainer Krienke krienke@uni-koblenz.de . Meine Webseiten an der Uni Koblenz oder privat.
Version: $Revision: 0.78 $